{"data":{"norad_id":59844,"epoch":"2026-05-25T03:47:54.691296Z","epoch_age_seconds":61240,"freshness":"FRESH","line1":"1 59844U 24097K   26145.15827189  .00000403  00000+0  24170-4 0  9995","line2":"2 59844  43.0024 202.3418 0001606 268.9798  91.0870 15.27576432113616","mean_motion":15.27576432,"eccentricity":0.0001606,"inclination_deg":43.0024,"raan_deg":202.3418,"arg_perigee_deg":268.9798,"mean_anomaly_deg":91.087,"bstar":2.417e-5,"rev_number":11361,"period_min":94.266968894948,"perigee_km":481.95787173317,"apogee_km":484.16168813889,"semimajor_km":6861.196779936,"source":"CELESTRAK","updated_at":"2026-05-25T13:38:19.086941Z"}}